Location: Tucson
(32.2217°N, 110.9265°W)
Time: 05:40:53
(UTC-07:00)

Vanguard 1 - All Passes

Search period start: 25 October 2021 00:00
Search period end: 04 November 2021 00:00
Orbit: 653 x 3829 km, 34.2° (Epoch: 24 October)

Date Brightness Start Highest point End Pass type
(mag) Time Alt. Az. Time Alt. Az. Time Alt. Az.
25 Oct - 10:03:58 10° SW 10:08:30 31° SSE 10:12:25 10° E daylight
25 Oct - 12:23:52 10° W 12:28:16 80° N 12:33:39 10° ENE daylight
25 Oct - 14:43:36 10° WNW 14:48:42 85° N 14:57:11 10° E daylight
25 Oct - 17:03:06 10° W 17:09:51 48° SSW 17:21:57 10° SE daylight
25 Oct - 19:25:33 10° WSW 19:32:45 19° SSW 19:42:50 10° S visible
26 Oct - 08:07:49 10° SSE 08:09:03 11° SSE 08:10:13 10° SE daylight
26 Oct - 10:24:29 10° SW 10:29:22 46° SSE 10:33:36 10° E daylight
26 Oct - 12:44:52 10° W 12:49:16 71° N 12:54:51 10° E daylight
26 Oct - 15:04:28 10° WNW 15:09:43 82° SSW 15:18:38 10° ESE daylight
26 Oct - 17:24:16 10° W 17:31:02 37° SSW 17:42:33 10° SE daylight
26 Oct - 19:49:27 10° SW 19:54:18 13° SSW 20:00:09 10° S visible
27 Oct - 08:25:55 10° SSW 08:30:07 17° SSE 08:33:28 10° ESE daylight
27 Oct - 10:45:18 10° WSW 10:50:14 66° SSE 10:54:40 10° E daylight
27 Oct - 13:05:51 10° W 13:10:16 70° N 13:16:08 10° E daylight
27 Oct - 15:25:21 10° W 15:30:43 67° SSW 15:39:55 10° ESE daylight
27 Oct - 17:45:44 10° W 17:52:18 28° SSW 18:02:41 10° SSE visible
28 Oct - 08:45:43 10° SSW 08:51:08 26° SSE 08:55:09 10° E daylight
28 Oct - 11:06:18 10° WSW 11:11:08 88° S 11:15:40 10° ENE daylight
28 Oct - 13:26:47 10° WNW 13:31:16 75° N 13:37:26 10° E daylight
28 Oct - 15:46:17 10° W 15:51:45 51° SSW 16:01:00 10° SE daylight
28 Oct - 18:07:42 10° WSW 18:13:37 20° SSW 18:22:08 10° SSE visible
29 Oct - 06:49:34 10° SSE 06:51:02 10° SSE 06:52:23 10° SE daylight
29 Oct - 09:06:07 10° SW 09:12:07 38° SSE 09:16:25 10° E daylight
29 Oct - 11:27:22 10° W 11:32:05 77° N 11:36:41 10° ENE daylight
29 Oct - 13:47:42 10° WNW 13:52:15 87° NNE 13:58:45 10° ESE daylight
29 Oct - 16:07:21 10° W 16:12:48 39° SSW 16:21:46 10° SE daylight
29 Oct - 18:30:49 10° SW 18:35:02 13° SSW 18:40:16 10° S visible
30 Oct - 07:07:02 10° S 07:12:16 17° SSE 07:16:13 10° ESE daylight
30 Oct - 09:26:52 10° SW 09:33:03 54° SSE 09:37:29 10° E daylight
30 Oct - 11:48:28 10° W 11:53:03 69° N 11:57:44 10° E daylight
30 Oct - 14:08:36 10° WNW 14:13:12 76° SSW 14:20:00 10° ESE daylight
30 Oct - 16:28:39 10° W 16:33:57 28° SSW 16:42:07 10° SSE daylight
31 Oct - 07:26:33 10° SSW 07:33:26 25° SSE 07:38:08 10° ESE daylight
31 Oct - 09:47:52 10° WSW 09:53:58 73° SSE 09:58:26 10° ENE daylight
31 Oct - 12:09:32 10° W 12:14:02 69° N 12:18:52 10° E daylight
31 Oct - 14:29:31 10° W 14:34:09 58° SSW 14:41:05 10° ESE daylight
31 Oct - 16:50:22 10° WSW 16:55:08 20° SSW 17:01:54 10° SSE daylight
01 Nov - 05:30:22 10° SSE 05:32:33 11° SSE 05:34:32 10° SE visible
01 Nov - 07:46:45 10° SW 07:54:32 34° SSE 07:59:31 10° E daylight
01 Nov - 10:09:01 10° WSW 10:14:54 88° NNW 10:19:21 10° ENE daylight
01 Nov - 12:30:34 10° WNW 12:35:01 75° N 12:40:02 10° E daylight
01 Nov - 14:50:32 10° W 14:55:07 42° SSW 15:01:56 10° SE daylight
01 Nov - 17:13:02 10° SW 17:16:24 13° SSW 17:20:34 10° S daylight
02 Nov - 05:47:17 10° S 05:53:56 17° SSE 05:58:51 10° ESE visible
02 Nov - 08:07:25 10° SW 08:15:34 47° SSE 08:20:38 10° E daylight
02 Nov - 10:30:15 10° W 10:35:52 75° N 10:40:17 10° ENE daylight
02 Nov - 12:51:33 10° WNW 12:55:59 90° ENE 13:01:10 10° ESE daylight
02 Nov - 15:11:43 10° W 15:16:06 30° SSW 15:22:27 10° SE daylight
03 Nov - 06:06:27 10° SSW 06:15:15 24° SSE 06:21:03 10° ESE visible
03 Nov - 08:28:23 10° WSW 08:36:35 63° SSE 08:41:36 10° E daylight
03 Nov - 10:51:30 10° W 10:56:51 69° N 11:01:15 10° E daylight
03 Nov - 13:12:30 10° W 13:16:54 70° SSW 13:22:13 10° ESE daylight
03 Nov - 15:33:14 10° WSW 15:37:10 20° SSW 15:42:28 10° SSE daylight
